Location: Berg
(47.2344°N, 9.5296°E)
Time: 15:16:23
(UTC+00:00)

Cosmos 44 - Pass Details

Date: 15 May 2021
Orbit: 571 x 791 km, 65.1° (Epoch: 11 June)

Event Time Altitude Azimuth Distance (km) Brightness Sun altitude
Rises 22:31:01 0° 309° (NW) 3,281 7.5 -22.8°
Reaches altitude 10° 22:34:30 10° 286° (WNW) 2,325 6.3 -22.9°
Maximum altitude 22:37:21 15° 254° (WSW) 1,988 5.6 -23.0°
Enters shadow 22:38:08 14° 244° (WSW) 2,005 5.5 -23.1°
